When you browse on this site, cookies collect data to enhance your experience and personalize the content and advertising you see.
Visit our Privacy Policy to learn more. By continuing to use the site, you agree to this use of cookies and data.
  • In Austria
  • List of Countries
  • For 7 days
  • Water Temperature
  • Satellite Maps
  • Weather Map
  • News
  • Weather Widgets
  • user-avatar
    Login

    Hourly Weather Meknes

    Today, 13 December, Thursday

    Time Temperature Precipitation Wind Pressure Humidity
    00:00 +12°C° 0 mm 1 mps 721 mmHg 82%
    01:00 +12°C° 0 mm 1 mps 720 mmHg 82%
    02:00 +12°C° 0 mm 1 mps 720 mmHg 83%
    03:00 +12°C° 0 mm 1 mps 720 mmHg 83%
    04:00 +12°C° 0 mm 1 mps 720 mmHg 81%
    05:00 +12°C° 0 mm 2 mps 720 mmHg 78%
    06:00 +12°C° 0 mm 2 mps 720 mmHg 76%
    07:00 +13°C° 0 mm 2 mps 720 mmHg 74%
    08:00 +12°C° 0 mm 3 mps 720 mmHg 71%
    09:00 +13°C° 0 mm 3 mps 720 mmHg 69%
    10:00 +13°C° 0 mm 4 mps 720 mmHg 67%
    11:00 +14°C° 0 mm 5 mps 719 mmHg 64%
    12:00 +15°C° 0 mm 7 mps 719 mmHg 62%
    13:00 +15°C° 0.5 mm 7 mps 719 mmHg 65%
    14:00 +13°C° 0.5 mm 8 mps 719 mmHg 69%
    15:00 +13°C° 0.5 mm 8 mps 719 mmHg 72%
    16:00 +12°C° 1.2 mm 7 mps 719 mmHg 77%
    17:00 +11°C° 1.2 mm 6 mps 719 mmHg 82%
    18:00 +10°C° 1.2 mm 5 mps 719 mmHg 87%
    19:00 +10°C° 0.2 mm 5 mps 720 mmHg 86%
    20:00 +11°C° 0.2 mm 4 mps 720 mmHg 86%
    21:00 +10°C° 0.2 mm 4 mps 721 mmHg 85%
    22:00 +10°C° 0.1 mm 4 mps 721 mmHg 84%
    23:00 +10°C° 0.1 mm 4 mps 721 mmHg 84%

    Tomorrow, 14 December, Friday

    Time Temperature Precipitation Wind Pressure Humidity
    00:00 +10°C° 0.1 mm 4 mps 721 mmHg 83%
    01:00 +10°C° 0.1 mm 4 mps 721 mmHg 83%
    02:00 +10°C° 0.1 mm 3 mps 721 mmHg 83%
    03:00 +9°C° 0.1 mm 3 mps 721 mmHg 83%
    04:00 +9°C° 0.1 mm 3 mps 721 mmHg 83%
    05:00 +9°C° 0.1 mm 2 mps 721 mmHg 84%
    06:00 +9°C° 0.1 mm 2 mps 721 mmHg 84%
    07:00 +9°C° 0.1 mm 2 mps 722 mmHg 82%
    08:00 +9°C° 0.1 mm 2 mps 723 mmHg 81%
    09:00 +11°C° 0.1 mm 1 mps 723 mmHg 79%
    10:00 +12°C° 0 mm 2 mps 723 mmHg 73%
    11:00 +12°C° 0 mm 2 mps 723 mmHg 68%
    12:00 +13°C° 0 mm 2 mps 724 mmHg 63%
    13:00 +12°C° 0 mm 3 mps 723 mmHg 63%
    14:00 +12°C° 0 mm 3 mps 723 mmHg 62%
    15:00 +12°C° 0 mm 3 mps 723 mmHg 62%
    16:00 +13°C° 0 mm 2 mps 723 mmHg 67%
    17:00 +12°C° 0 mm 2 mps 723 mmHg 72%
    18:00 +11°C° 0 mm 1 mps 723 mmHg 77%
    19:00 +10°C° 0 mm 1 mps 723 mmHg 78%
    20:00 +10°C° 0 mm 1 mps 723 mmHg 80%
    21:00 +9°C° 0 mm 0 mps 723 mmHg 81%
    22:00 +8°C° 0 mm 0 mps 723 mmHg 81%
    23:00 +9°C° 0 mm 1 mps 723 mmHg 81%

    Day after tomorrow, 15 December, Saturday

    Time Temperature Precipitation Wind Pressure Humidity
    00:00 +9°C° 0 mm 1 mps 723 mmHg 80%
    01:00 +9°C° 0 mm 1 mps 722 mmHg 81%
    02:00 +8°C° 0 mm 1 mps 722 mmHg 81%
    03:00 +8°C° 0 mm 1 mps 722 mmHg 82%
    04:00 +8°C° 0 mm 1 mps 722 mmHg 81%
    05:00 +8°C° 0 mm 1 mps 722 mmHg 80%
    06:00 +8°C° 0 mm 1 mps 722 mmHg 79%
    07:00 +9°C° 0 mm 1 mps 722 mmHg 76%
    08:00 +10°C° 0 mm 1 mps 723 mmHg 73%
    09:00 +11°C° 0 mm 1 mps 723 mmHg 70%
    10:00 +13°C° 0 mm 1 mps 723 mmHg 63%
    11:00 +14°C° 0 mm 1 mps 723 mmHg 56%
    12:00 +16°C° 0 mm 1 mps 723 mmHg 49%
    13:00 +16°C° 0 mm 1 mps 723 mmHg 48%
    14:00 +18°C° 0 mm 1 mps 723 mmHg 47%
    15:00 +18°C° 0 mm 1 mps 722 mmHg 46%
    16:00 +15°C° 0 mm 1 mps 723 mmHg 53%
    17:00 +14°C° 0 mm 1 mps 723 mmHg 60%
    18:00 +11°C° 0 mm 0 mps 723 mmHg 67%
    19:00 +11°C° 0 mm 0 mps 723 mmHg 67%
    20:00 +11°C° 0 mm 0 mps 723 mmHg 67%
    21:00 +10°C° 0 mm 0 mps 723 mmHg 67%
    22:00 +10°C° 0 mm 0 mps 723 mmHg 66%
    23:00 +10°C° 0 mm 0 mps 723 mmHg 66%

    16 December, Sunday

    Time Temperature Precipitation Wind Pressure Humidity
    00:00 +10°C° 0 mm 0 mps 723 mmHg 65%
    01:00 +10°C° 0 mm 0 mps 723 mmHg 64%
    02:00 +9°C° 0 mm 0 mps 722 mmHg 63%
    03:00 +9°C° 0 mm 0 mps 722 mmHg 63%
    04:00 +10°C° 0 mm 1 mps 722 mmHg 61%
    05:00 +10°C° 0 mm 1 mps 722 mmHg 60%
    06:00 +10°C° 0 mm 1 mps 722 mmHg 59%
    07:00 +11°C° 0 mm 1 mps 723 mmHg 56%
    08:00 +13°C° 0 mm 1 mps 723 mmHg 54%
    09:00 +14°C° 0 mm 1 mps 724 mmHg 51%
    10:00 +15°C° 0 mm 1 mps 724 mmHg 47%
    11:00 +16°C° 0 mm 1 mps 724 mmHg 44%
    12:00 +19°C° 0 mm 1 mps 724 mmHg 40%
    13:00 +19°C° 0 mm 1 mps 723 mmHg 40%
    14:00 +19°C° 0 mm 1 mps 723 mmHg 40%
    15:00 +20°C° 0 mm 1 mps 723 mmHg 40%
    16:00 +18°C° 0 mm 1 mps 723 mmHg 47%
    17:00 +15°C° 0 mm 1 mps 723 mmHg 54%
    18:00 +14°C° 0 mm 1 mps 723 mmHg 61%
    19:00 +13°C° 0 mm 1 mps 724 mmHg 64%
    20:00 +12°C° 0 mm 0 mps 724 mmHg 66%
    21:00 +11°C° 0 mm 0 mps 724 mmHg 69%
    22:00 +11°C° 0 mm 0 mps 724 mmHg 70%
    23:00 +11°C° 0 mm 0 mps 724 mmHg 71%

    17 December, Monday

    Time Temperature Precipitation Wind Pressure Humidity
    00:00 +10°C° 0 mm 0 mps 724 mmHg 72%
    01:00 +10°C° 0 mm 0 mps 723 mmHg 72%
    02:00 +10°C° 0 mm 0 mps 723 mmHg 71%
    03:00 +10°C° 0 mm 0 mps 723 mmHg 71%
    04:00 +10°C° 0 mm 0 mps 723 mmHg 71%
    05:00 +9°C° 0 mm 0 mps 722 mmHg 71%
    06:00 +9°C° 0 mm 0 mps 722 mmHg 72%
    07:00 +10°C° 0 mm 0 mps 723 mmHg 68%
    08:00 +13°C° 0 mm 1 mps 723 mmHg 64%
    09:00 +14°C° 0 mm 1 mps 723 mmHg 60%
    10:00 +15°C° 0 mm 1 mps 723 mmHg 57%
    11:00 +16°C° 0 mm 1 mps 723 mmHg 53%
    12:00 +19°C° 0 mm 1 mps 723 mmHg 50%
    13:00 +19°C° 0 mm 1 mps 723 mmHg 51%
    14:00 +18°C° 0 mm 2 mps 722 mmHg 52%
    15:00 +19°C° 0 mm 2 mps 722 mmHg 52%
    16:00 +18°C° 0 mm 1 mps 722 mmHg 60%
    17:00 +16°C° 0 mm 1 mps 722 mmHg 68%
    18:00 +14°C° 0 mm 1 mps 722 mmHg 76%
    19:00 +14°C° 0 mm 1 mps 722 mmHg 76%
    20:00 +13°C° 0 mm 1 mps 722 mmHg 77%
    21:00 +12°C° 0 mm 0 mps 722 mmHg 77%
    22:00 +13°C° 0 mm 1 mps 722 mmHg 75%
    23:00 +13°C° 0 mm 1 mps 722 mmHg 73%

    18 December, Tuesday

    Time Temperature Precipitation Wind Pressure Humidity
    00:00 +13°C° 0 mm 1 mps 722 mmHg 70%
    01:00 +12°C° 0 mm 1 mps 721 mmHg 69%
    02:00 +12°C° 0 mm 1 mps 721 mmHg 67%
    03:00 +12°C° 0 mm 1 mps 721 mmHg 65%
    04:00 +12°C° 0 mm 1 mps 721 mmHg 65%
    05:00 +12°C° 0 mm 1 mps 721 mmHg 65%
    06:00 +11°C° 0 mm 1 mps 721 mmHg 65%
    07:00 +13°C° 0 mm 1 mps 721 mmHg 61%
    08:00 +14°C° 0 mm 1 mps 722 mmHg 58%
    09:00 +15°C° 0 mm 1 mps 722 mmHg 54%
    10:00 +16°C° 0 mm 1 mps 722 mmHg 49%
    11:00 +18°C° 0 mm 2 mps 722 mmHg 44%
    12:00 +19°C° 0 mm 2 mps 722 mmHg 39%
    13:00 +20°C° 0 mm 2 mps 722 mmHg 39%
    14:00 +20°C° 0 mm 3 mps 722 mmHg 39%
    15:00 +20°C° 0 mm 3 mps 721 mmHg 40%
    16:00 +18°C° 0 mm 2 mps 721 mmHg 49%
    17:00 +16°C° 0 mm 2 mps 721 mmHg 58%
    18:00 +14°C° 0 mm 1 mps 721 mmHg 68%
    19:00 +14°C° 0 mm 1 mps 721 mmHg 70%
    20:00 +13°C° 0 mm 1 mps 721 mmHg 71%
    21:00 +13°C° 0 mm 1 mps 722 mmHg 73%
    22:00 +13°C° 0 mm 1 mps 722 mmHg 72%
    23:00 +13°C° 0 mm 1 mps 721 mmHg 71%
    Show more